North Bend, OR

7:53 AM PST on November 21, 2017 (GMT -0800)
North Bend Municipal

Weather History for KOTH - September, 2011

Change the Weather History Date:

Monday, September 19, 2011

  Actual Average Record
Temperature  
Mean Temperature 61 °F 57 °F  
Max Temperature 70 °F 65 °F 90 °F (1942)
Min Temperature 52 °F 50 °F 38 °F (1928)
Degree Days  
Heating Degree Days 4 8  
Month to date heating degree days 152 132  
Since 1 July heating degree days 502 511  
Cooling Degree Days 0 0  
Month to date cooling degree days 0 0  
Year to date cooling degree days 1 1  
Growing Degree Days 13 (Base 50)    
Moisture  
Dew Point 54 °F    
Average Humidity 76    
Maximum Humidity 86    
Minimum Humidity 58    
Precipitation  
Precipitation 0.00 in 0.06 in 0.82 in (1973)
Month to date precipitation 0.00 0.82  
Year to date precipitation 27.98 38.06  
Sea Level Pressure  
Sea Level Pressure 30.18 in    
Wind  
Wind Speed 9 mph (North)    
Max Wind Speed 24 mph    
Max Gust Speed 31 mph    
Visibility 7 miles    
Events      
T = Trace of Precipitation, MM = Missing Value Source: NWS Daily Summary

Daily Weather History Graph

Daily Weather History Graph

Search for Another Location

Airport or City:

Trip Planner

Search our weather history database for the weather conditions in past years. The results will help you decide how hot, cold, wet, or windy it might be!

Date:

Astronomy

Sep. 19, 2011 Rise Set
Actual Time 7:00 AM PDT 7:20 PM PDT
Civil Twilight 6:32 AM PDT 7:48 PM PDT
Nautical Twilight 5:58 AM PDT 8:22 PM PDT
Astronomical Twilight 5:23 AM PDT 8:56 PM PDT
Moon 11:20 PM PDT (9/19) 2:07 PM PDT (9/19)
Length of Visible Light 13h 16m
Length of Day
12h 19m
Waning Gibbous, 58% of the Moon is Illuminated
Sep 19
Waning Gibbous
Sep 20
Last Quarter
Sep 27
New
Oct 3
First Quarter
Oct 11
Full

Hourly Weather History & Observations

Time (PDT) Temp. Dew Point Humidity Pressure Visibility Wind Dir Wind Speed Gust Speed Precip Events Conditions
12:15 AM 60.8 °F 55.4 °F 82% 30.19 in 10.0 mi ESE 4.6 mph - N/A   Overcast
12:35 AM 60.8 °F 55.4 °F 82% 30.19 in 10.0 mi SE 4.6 mph - N/A   Overcast
12:55 AM 60.8 °F 55.4 °F 82% 30.19 in 10.0 mi SE 4.6 mph - N/A   Overcast
1:15 AM 60.8 °F 53.6 °F 77% 30.19 in 10.0 mi SE 6.9 mph - N/A   Overcast
1:35 AM 60.8 °F 53.6 °F 77% 30.19 in 10.0 mi SE 3.5 mph - N/A   Overcast
1:55 AM 60.8 °F 55.4 °F 82% 30.19 in 10.0 mi ESE 4.6 mph - N/A   Overcast
2:15 AM 60.8 °F 53.6 °F 77% 30.19 in 10.0 mi SE 5.8 mph - N/A   Overcast
2:35 AM 60.8 °F 53.6 °F 77% 30.18 in 10.0 mi ESE 3.5 mph - N/A   Overcast
2:55 AM 59.0 °F 53.6 °F 82% 30.18 in 10.0 mi ESE 3.5 mph - N/A   Overcast
3:15 AM 60.8 °F 53.6 °F 77% 30.19 in 10.0 mi Calm Calm - N/A   Overcast
3:35 AM 60.8 °F 53.6 °F 77% 30.19 in 4.0 mi Calm Calm - N/A   Overcast
3:55 AM 59.0 °F 53.6 °F 82% 30.19 in 1.5 mi ESE 3.5 mph - N/A   Overcast
4:15 AM 59.0 °F 53.6 °F 82% 30.19 in 2.0 mi Calm Calm - N/A   Overcast
4:35 AM 59.0 °F 53.6 °F 82% 30.18 in 2.0 mi Calm Calm - N/A   Overcast
4:55 AM 59.0 °F 53.6 °F 82% 30.18 in 3.0 mi Calm Calm - N/A   Overcast
5:15 AM 57.2 °F 53.6 °F 88% 30.18 in 4.0 mi Calm Calm - N/A   Overcast
5:35 AM 57.2 °F 53.6 °F 88% 30.17 in 2.5 mi Calm Calm - N/A   Overcast
5:55 AM 57.2 °F 53.6 °F 88% 30.18 in 3.0 mi Calm Calm - N/A   Overcast
6:15 AM 59.0 °F 53.6 °F 82% 30.18 in 2.5 mi Calm Calm - N/A   Overcast
6:55 AM 57.2 °F 53.6 °F 88% 30.18 in 3.0 mi NW 3.5 mph - N/A   Overcast
7:15 AM 57.2 °F 53.6 °F 88% 30.18 in 1.8 mi Calm Calm - N/A   Overcast
7:35 AM 57.2 °F 53.6 °F 88% 30.19 in 1.2 mi Calm Calm - N/A   Overcast
7:55 AM 57.2 °F 53.6 °F 88% 30.19 in 1.0 mi NNW 4.6 mph - N/A   Overcast
8:15 AM 57.2 °F 51.8 °F 82% 30.20 in 3.0 mi Calm Calm - N/A   Overcast
8:35 AM 57.2 °F 53.6 °F 88% 30.20 in 2.5 mi Calm Calm - N/A   Overcast
8:55 AM 57.2 °F 53.6 °F 88% 30.20 in 2.5 mi Calm Calm - N/A   Overcast
9:15 AM 59.0 °F 55.4 °F 88% 30.19 in 3.0 mi Calm Calm - N/A   Overcast
9:35 AM 60.8 °F 55.4 °F 82% 30.20 in 2.5 mi Calm Calm - N/A   Overcast
9:55 AM 60.8 °F 55.4 °F 82% 30.20 in 3.0 mi WNW 5.8 mph - N/A   Overcast
10:15 AM 60.8 °F 55.4 °F 82% 30.19 in 2.5 mi NW 3.5 mph - N/A   Overcast
10:35 AM 62.6 °F 57.2 °F 82% 30.19 in 5.0 mi NW 3.5 mph - N/A   Overcast
10:55 AM 66.2 °F 57.2 °F 73% 30.19 in 6.0 mi North 8.1 mph - N/A   Overcast
11:15 AM 64.4 °F 55.4 °F 73% 30.19 in 10.0 mi NW 8.1 mph - N/A   Overcast
11:35 AM 64.4 °F 55.4 °F 73% 30.19 in 10.0 mi NNW 10.4 mph - N/A   Overcast
12:15 PM 66.2 °F 57.2 °F 73% 30.18 in 10.0 mi North 18.4 mph 23.0 mph N/A   Scattered Clouds
12:35 PM 66.2 °F 55.4 °F 68% 30.18 in 10.0 mi North 20.7 mph - N/A   Clear
12:55 PM 68.0 °F 53.6 °F 60% 30.17 in 10.0 mi North 18.4 mph 25.3 mph N/A   Clear
1:15 PM 69.8 °F 55.4 °F 60% 30.16 in 10.0 mi North 16.1 mph - N/A   Clear
1:35 PM 69.8 °F 53.6 °F 56% 30.16 in 10.0 mi North 18.4 mph 23.0 mph N/A   Clear
1:55 PM 68.0 °F 53.6 °F 60% 30.16 in 10.0 mi North 20.7 mph - N/A   Clear
2:15 PM 66.2 °F 53.6 °F 64% 30.15 in 10.0 mi North 19.6 mph 24.2 mph N/A   Clear
2:35 PM 66.2 °F 51.8 °F 60% 30.14 in 10.0 mi NNW 19.6 mph 27.6 mph N/A   Clear
2:55 PM 66.2 °F 51.8 °F 60% 30.14 in 10.0 mi North 23.0 mph 26.5 mph N/A   Clear
3:15 PM 64.4 °F 51.8 °F 64% 30.14 in 10.0 mi North 24.2 mph 28.8 mph N/A   Clear
3:35 PM 64.4 °F 51.8 °F 64% 30.13 in 10.0 mi North 23.0 mph 31.1 mph N/A   Clear
3:55 PM 64.4 °F 51.8 °F 64% 30.13 in 10.0 mi North 21.9 mph 27.6 mph N/A   Clear
4:15 PM 64.4 °F 51.8 °F 64% 30.13 in 10.0 mi North 18.4 mph 25.3 mph N/A   Clear
4:35 PM 64.4 °F 51.8 °F 64% 30.13 in 10.0 mi North 18.4 mph - N/A   Clear
4:55 PM 64.4 °F 51.8 °F 64% 30.13 in 10.0 mi NNW 17.3 mph - N/A   Clear
5:15 PM 62.6 °F 51.8 °F 68% 30.12 in 10.0 mi North 20.7 mph - N/A   Clear
5:35 PM 62.6 °F 51.8 °F 68% 30.12 in 10.0 mi North 16.1 mph - N/A   Clear
5:55 PM 62.6 °F 53.6 °F 72% 30.11 in 10.0 mi North 13.8 mph - N/A   Clear
6:15 PM 62.6 °F 51.8 °F 68% 30.11 in 10.0 mi North 12.7 mph - N/A   Clear
6:35 PM 60.8 °F 51.8 °F 72% 30.11 in 10.0 mi NNW 10.4 mph - N/A   Clear
6:55 PM 59.0 °F 50.0 °F 72% 30.11 in 10.0 mi NNW 10.4 mph - N/A   Clear
7:15 PM 57.2 °F 50.0 °F 77% 30.11 in 10.0 mi NNW 10.4 mph - N/A   Clear
7:35 PM 57.2 °F 48.2 °F 72% 30.11 in 10.0 mi NNW 11.5 mph - N/A   Clear
7:55 PM 55.4 °F 48.2 °F 77% 30.11 in 10.0 mi NNW 11.5 mph - N/A   Clear
8:15 PM 55.4 °F 48.2 °F 77% 30.12 in 10.0 mi North 12.7 mph - N/A   Clear
8:35 PM 55.4 °F 48.2 °F 77% 30.12 in 10.0 mi North 6.9 mph - N/A   Clear
8:55 PM 57.2 °F 48.2 °F 72% 30.12 in 10.0 mi NNW 8.1 mph - N/A   Clear
9:15 PM 55.4 °F 48.2 °F 77% 30.13 in 10.0 mi NW 6.9 mph - N/A   Clear
9:35 PM 55.4 °F 48.2 °F 77% 30.13 in 7.0 mi North 4.6 mph - N/A   Clear
9:55 PM 55.4 °F 48.2 °F 77% 30.13 in 5.0 mi North - - N/A   Clear
10:15 PM 55.4 °F 48.2 °F 77% 30.13 in 5.0 mi Calm Calm - N/A   Clear
10:35 PM 53.6 °F 48.2 °F 82% 30.13 in 5.0 mi Calm Calm - N/A   Clear
10:55 PM 53.6 °F 48.2 °F 82% 30.13 in 6.0 mi Calm Calm - N/A   Clear
11:15 PM 51.8 °F 46.4 °F 82% 30.13 in 5.0 mi Calm Calm - N/A   Clear
11:35 PM 51.8 °F 46.4 °F 82% 30.12 in 6.0 mi South 3.5 mph - N/A   Clear
11:55 PM 51.8 °F 46.4 °F 82% 30.12 in 5.0 mi South 3.5 mph - N/A   Clear